DECAYED

STARLINK-1201, 45182 (Decayed)

Orbit data source: Space-Track

STARLINK-1201, 45182 was a payload satellite owned by SpaceX/Seattle (US) in LEO that was launched on Mon, 17 Feb 2020 UTC via an FALCON 9 launch vehicle from the Air Force Eastern Test Range (AFETR). Payload-class satellites include a variety of spacecraft equipped with specific instruments for various scientific and technological missions. These include communications satellites like Starlink; space stations such as the ISS; scientific satellites like the Hubble; Earth observation satellites from companies like Planet Labs, Umbra, and HawkEye 360; GPS; miniature CubeSats for education and research; and military/defense satellites.

Not visible in the next 10 days
Identifier
45182, 2020-012E
Orbit
Decayed
Country
Flag of USUS
Related business
Manufacturer
SpaceX/Seattle
Mission
Decayed Commercial Communications
Bus & Motor
STARLINK, Unknown motor
Mass
260 kg wet, ~248 kg dry
Launch date (UTC)
2020-02-17 (6 years ago)
Launch vehicle
FALCON 9
Launch site
Air Force Eastern Test Range (AFETR)
Object type
Payload
Rocket body
Debris
Shape & HBR
Box + 1 Pan, 10.1 m
Radar Cross Section
13.562 m², Large (>1 m²)

Expand to show TLE details & history
Last TLE update: 1 month ago

TLE from 1 month ago
0 STARLINK-1201
1 45182U 20012E   25268.61029405  .06115692  12228-4  81851-3 0  9990
2 45182  53.0270 345.0700 0003021 287.9103  72.1611 16.34671344310959
Epoch: 2025-09-25T14:38Z
TLE epoch observation values (Epoch: 2025-09-25T14:38:49.405Z)
Latitude
-0.00008°
Longitude
120.69513°
Altitude
180.335 km
Speed
7.8 km/s
True Right ascension
23h 00m 16s
True Declination
0° 00' 00"
Sunlit
Object was in full shadow at epoch
Visualization orbit readout
Latitude
Unknown
Longitude
Unknown
Altitude
Unknown
Speed
Unknown
Apparent Right ascension
Unknown
Apparent Declination
Unknown
Sunlit
N/A
Visualization observer readout
Local Sidereal Time
08:07:00
Azimuth
Unknown
Elevation
Unknown
Doppler factor
Unknown
Orbital elements
Apogee altitude
182.287 km
Perigee altitude
178.325 km
Semi-major axis
6,558.443 km
Eccentricity
0.0003
Inclination
53.027°
RAAN
345.07°
Arg. of periapsis
287.9103°
True anomaly
72.19406°
Mean anomaly
72.1611°
Eccentric anomaly
72.17758°
Mean motion
4.08641 °/min
Orbital period
88.1 mins
BSTAR
0.00081851
Loading maneuver chart data...
Computing Atmospheric mass density...
Loading historical data...
Loading historical data...
Loading historical data...
Loading historical data...
Loading historical data...
Loading historical data...
Loading historical data...

Documentation

Showing up to 5 results
|